Date String (YYYY-MM-DD hh:mm:ss) UTC,Instrument flags,Ambient pressure (hPa),Sample flow (lpm),Bypass flow (lpm),Sample temperature (°C),Ambient temperature (°C),ASC tube jacket temperature (°C),LED temperature (°C),Box temperature (°C),Sample RH (%),Span deviation,Mass concentration (μg/m³),Mass concentration (μg/m³),Mass concentration (μg/m³)
DateTimeUTC,F1_M11,P_M11,Q1_M11,Q2_M11,T1_M11,T2_M11,T3_M11,T4_M11,T5_M11,U1_M11,ZSPAN_M11,X2_M11,X0_M11,X1_M11
2022-02-22 04:00:00,,0820.4,5.00,0.00,22.1,21.6,00.0,31.3,23.6,05.7,0000.0,0003.92,0010.54,0003.31
2022-02-22 04:01:00,,0820.6,4.99,0.00,22.2,22.2,00.0,31.3,23.9,05.7,0000.0,0003.92,0010.53,0003.32
2022-02-22 04:02:00,,0820.6,5.01,0.00,22.4,22.9,00.0,31.4,24.2,05.6,0000.0,0003.91,0010.04,0003.33
2022-02-22 04:03:00,,0820.6,5.00,0.00,22.5,23.3,00.0,31.4,24.4,05.6,0000.0,0003.90,0009.45,0003.34
2022-02-22 04:04:00,,0820.6,4.99,0.00,22.5,23.0,00.0,31.4,24.3,05.6,0000.0,0003.89,0009.42,0003.33
2022-02-22 04:05:00,,0820.5,5.00,0.00,22.4,22.6,00.0,31.4,24.1,05.6,0000.0,0003.85,0008.63,0003.31
2022-02-22 04:06:00,,0820.5,4.99,0.00,22.4,22.2,00.0,31.4,24.0,05.6,0000.0,0003.88,0008.66,0003.31
2022-02-22 04:07:00,,0820.3,5.00,0.00,22.3,21.9,00.0,31.4,23.8,05.6,0000.0,0003.87,0008.51,0003.32
2022-02-22 04:08:00,,0820.3,5.01,0.00,22.2,21.6,00.0,31.4,23.7,05.7,0000.0,0003.87,0007.90,0003.32
2022-02-22 04:09:00,,0820.4,5.01,0.00,22.1,21.6,00.0,31.3,23.6,05.7,0000.0,0003.90,0008.83,0003.33
2022-02-22 04:10:00,,0820.6,4.99,0.00,22.2,22.2,00.0,31.3,23.9,05.7,0000.0,0003.91,0009.12,0003.32
2022-02-22 04:11:00,,0820.6,5.01,0.00,22.4,22.9,00.0,31.4,24.2,05.7,0000.0,0003.94,0009.47,0003.33
2022-02-22 04:12:00,,0820.6,4.99,0.00,22.5,22.9,00.0,31.4,24.3,05.6,0000.0,0003.97,0009.97,0003.32
2022-02-22 04:13:00,,0820.6,5.01,0.00,22.4,22.5,00.0,31.4,24.2,05.5,0000.0,0003.99,0010.03,0003.32
2022-02-22 04:14:00,,0820.6,5.00,0.00,22.4,21.9,00.0,31.4,24.0,05.5,0000.0,0004.00,0010.31,0003.32
2022-02-22 04:15:00,,0820.5,4.99,0.00,22.3,21.5,00.0,31.3,23.9,05.5,0000.0,0004.02,0010.57,0003.34
2022-02-22 04:16:00,,0820.6,5.02,0.00,22.2,21.2,00.0,31.3,23.8,05.5,0000.0,0004.07,0011.39,0003.35
2022-02-22 04:17:00,,0820.6,5.00,0.00,22.2,21.0,00.0,31.3,23.7,05.5,0000.1,0004.09,0011.76,0003.36
2022-02-22 04:18:00,,0820.8,5.00,0.00,22.2,21.5,00.0,31.3,23.8,05.5,0000.2,0004.10,0012.01,0003.36
2022-02-22 04:19:00,,0820.8,4.99,0.00,22.3,22.4,00.0,31.3,24.1,05.5,-000.6,0004.15,0012.18,0003.35
2022-02-22 04:20:00,,0820.7,5.01,0.00,22.4,22.9,00.0,31.4,24.3,05.4,-000.3,0004.14,0011.57,0003.35
2022-02-22 04:21:00,,0820.6,4.99,0.00,22.5,22.7,00.0,31.4,24.3,05.4,0000.0,0004.12,0011.44,0003.35
2022-02-22 04:22:00,,0820.6,5.01,0.00,22.4,22.4,00.0,31.4,24.1,05.4,0000.0,0004.08,0011.62,0003.35
2022-02-22 04:23:00,,0820.7,5.00,0.00,22.3,22.1,00.0,31.4,24.0,05.4,0000.0,0004.09,0011.17,0003.35
2022-02-22 04:24:00,,0820.8,4.99,0.00,22.3,21.7,00.0,31.3,23.9,05.4,0000.0,0004.09,0011.89,0003.35
2022-02-22 04:25:00,,0820.8,5.01,0.00,22.2,21.4,00.0,31.3,23.8,05.3,0000.0,0004.09,0011.98,0003.34
2022-02-22 04:26:00,,0821.0,5.00,0.00,22.2,21.8,00.0,31.3,23.9,05.3,0000.0,0004.07,0011.14,0003.32
2022-02-22 04:27:00,,0820.9,4.99,0.00,22.3,22.6,00.0,31.4,24.1,05.3,0000.0,0004.02,0010.45,0003.31
2022-02-22 04:28:00,,0820.9,5.00,0.00,22.5,23.3,00.0,31.4,24.4,05.2,0000.0,0004.03,0010.29,0003.31
2022-02-22 04:29:00,,0820.8,5.01,0.00,22.6,23.3,00.0,31.4,24.5,05.2,0000.0,0004.02,0010.19,0003.31
2022-02-22 04:30:00,,0820.8,4.99,0.00,22.6,22.7,00.0,31.4,24.4,05.2,0000.0,0003.99,0010.02,0003.31
2022-02-22 04:31:00,,0820.9,5.02,0.00,22.5,22.1,00.0,31.4,24.2,05.2,0000.0,0003.97,0009.87,0003.31
2022-02-22 04:32:00,,0820.9,5.00,0.00,22.4,21.6,00.0,31.4,24.0,05.2,0000.0,0003.97,0009.55,0003.31
2022-02-22 04:33:00,,0820.9,4.99,0.00,22.3,21.2,00.0,31.3,23.8,05.2,0000.0,0003.96,0009.24,0003.29
2022-02-22 04:34:00,,0821.0,5.01,0.00,22.2,21.0,00.0,31.3,23.7,05.2,0000.0,0003.94,0009.20,0003.28
2022-02-22 04:35:00,,0820.9,4.98,0.00,22.2,21.6,00.0,31.3,23.8,05.2,0000.0,0003.94,0008.60,0003.28
2022-02-22 04:36:00,,0821.0,5.01,0.00,22.4,22.5,00.0,31.4,24.1,05.2,0000.0,0003.95,0009.32,0003.29
2022-02-22 04:37:00,,0821.0,5.00,0.00,22.5,23.0,00.0,31.4,24.3,05.2,0000.0,0003.96,0009.50,0003.30
2022-02-22 04:38:00,,0821.0,4.99,0.00,22.5,22.7,00.0,31.4,24.3,05.2,0000.0,0003.99,0010.15,0003.30
2022-02-22 04:39:00,,0821.0,5.01,0.00,22.5,22.4,00.0,31.4,24.2,05.2,0000.0,0004.00,0010.62,0003.31
2022-02-22 04:40:00,,0821.0,5.00,0.00,22.4,22.0,00.0,31.4,24.1,05.2,0000.0,0003.98,0011.14,0003.30
2022-02-22 04:41:00,,0821.0,5.00,0.00,22.3,21.8,00.0,31.4,23.9,05.2,0000.0,0003.98,0011.19,0003.30
2022-02-22 04:42:00,,0820.9,5.02,0.00,22.3,21.6,00.0,31.4,23.8,05.2,0000.0,0003.99,0011.20,0003.30
2022-02-22 04:43:00,,0820.8,4.99,0.00,22.2,21.6,00.0,31.3,23.7,05.2,0000.0,0003.98,0011.11,0003.30
2022-02-22 04:44:00,,0820.8,5.00,0.00,22.3,22.2,00.0,31.4,23.9,05.2,0000.0,0004.01,0011.32,0003.31
2022-02-22 04:45:00,,0820.8,5.00,0.00,22.4,22.9,00.0,31.4,24.2,05.2,0000.0,0004.07,0012.47,0003.34
2022-02-22 04:46:00,,0820.9,5.00,0.00,22.5,22.9,00.0,31.4,24.3,05.2,0000.0,0004.06,0012.88,0003.35
2022-02-22 04:47:00,,0821.0,5.00,0.00,22.5,22.5,00.0,31.4,24.3,05.2,0000.0,0004.07,0012.18,0003.35
2022-02-22 04:48:00,,0821.0,5.00,0.00,22.4,22.2,00.0,31.4,24.1,05.2,0000.0,0004.10,0012.71,0003.35
2022-02-22 04:49:00,,0820.8,5.00,0.00,22.4,21.9,00.0,31.4,24.0,05.2,0000.0,0004.16,0012.51,0003.36
2022-02-22 04:50:00,,0820.8,4.99,0.00,22.3,21.7,00.0,31.4,23.8,05.2,0000.0,0004.17,0012.13,0003.36
2022-02-22 04:51:00,,0820.8,5.01,0.00,22.2,21.5,00.0,31.3,23.7,05.3,0000.0,0004.19,0011.27,0003.37
2022-02-22 04:52:00,,0820.7,5.00,0.00,22.2,21.8,00.0,31.3,23.8,05.3,0000.0,0004.23,0011.42,0003.36
2022-02-22 04:53:00,,0820.6,5.00,0.00,22.3,22.5,00.0,31.4,24.0,05.2,0000.0,0004.25,0011.75,0003.35
2022-02-22 04:54:00,,0820.7,4.99,0.00,22.5,23.1,00.0,31.4,24.3,05.2,0000.0,0004.26,0011.83,0003.35
2022-02-22 04:55:00,,0820.8,5.01,0.00,22.5,22.7,00.0,31.4,24.3,05.2,0000.0,0004.27,0011.79,0003.36
2022-02-22 04:56:00,,0820.7,5.00,0.00,22.4,22.1,00.0,31.4,24.1,05.2,0000.0,0004.23,0010.68,0003.35
2022-02-22 04:57:00,,0820.7,5.00,0.00,22.4,21.6,00.0,31.4,24.0,05.2,0000.0,0004.26,0010.27,0003.35
2022-02-22 04:58:00,,0820.7,4.99,0.00,22.3,21.1,00.0,31.3,23.8,05.3,0000.0,0004.27,0010.32,0003.35
2022-02-22 04:59:00,,0820.7,4.99,0.00,22.2,20.8,00.0,31.3,23.6,05.3,0000.0,0004.25,0009.84,0003.35
